Voltar ao catálogo

STARLINK-32614

AtivoComunicaçõesVLEO
NORAD 62428·PAYLOAD·🇺🇸 United States

Lançado Dec 23, 2024 de Cape Canaveral Space Force Station

Loading…

Próximas Passagens (próximas 24 horas)

TLE

AtualizadoSource: CelesTrak SupGP

Época: Sep 15, 2026, 03:19 UTC

1 62428C 24249V   26258.13868056  .00045849  00000+0  16604-2 0  2589
2 62428  43.0028 332.0921 0001306 263.4364 172.7576 15.27560404    19

Acompanhe STARLINK-32614 em tempo real com AllMySat

Download on the App Store